Regional Weather Roundup
Issued by NWS Green Bay, WI

Home | Current Version | Previous Version | Graphics & Text | Print | Product List | Glossary Off
Versions: 1 2 3 4 5 6 7 8 9 10 11 12 13 14 15 16 17 18 19 20 21 22 23 24 25 26 27 28 29 30 31 32 33 34 35 36 37 38 39 40 41 42 43 44 45 46 47 48 49 50

000
ASUS43 KGRB 022000
RWRGRB

NORTH-CENTRAL AND NORTHEAST WISCONSIN REGIONAL WEATHER ROUNDUP
NATIONAL WEATHER SERVICE GREEN BAY WI
200 PM CST FRI DEC 02 2016

WIZ005-009-010>012-018-019-022100-
NORTH CENTRAL WISCONSIN

CITY           SKY/WX    TMP DP  RH WIND       PRES   REMARKS
IRONWOOD       CLOUDY    29  27  92 W10       30.17R
MANITOWISH WTR NOT AVBL
ARBOR VITAE    NOT AVBL
EAGLE RIVER    CLOUDY    30  30 100 CALM      30.13R FOG
LAND O LAKES   LGT SNOW  30  28  92 NW5       30.14R
RHINELANDER    CLOUDY    32  26  78 W8        30.15R
PHILLIPS       CLOUDY    29  25  83 NW5       30.16R
ANTIGO         NOT AVBL
TOMAHAWK       NOT AVBL
MERRILL        CLOUDY    32  25  77 NW6       30.17R
$$

WIZ013-073-022100-
NORTHEAST WISCONSIN

CITY           SKY/WX    TMP DP  RH WIND       PRES   REMARKS
IRON MOUNTAIN  CLOUDY    35  26  69 NW9       30.11R
MARINETTE      CLOUDY    37  27  67 NW9       30.15R
OCONTO         CLOUDY    36  27  68 NW3       30.15R
$$

WIZ017-030-035>037-045-022100-
CENTRAL WISCONSIN

CITY           SKY/WX    TMP DP  RH WIND       PRES   REMARKS
MEDFORD        CLOUDY    30  23  77 W7        30.17R
WAUSAU         CLOUDY    32  24  72 W8        30.16R
MOSINEE        CLOUDY    30  27  86 W8        30.18R
MARSHFIELD     CLOUDY    31  22  69 NW9       30.18R
WISC RAPIDS    CLOUDY    32  23  69 NW9       30.21R
STEVENS POINT  NOT AVBL
WAUPACA        CLOUDY    35  24  65 CALM      30.19S
SHAWANO        CLOUDY    37  27  66 W7        30.16S
CLINTONVILLE   CLOUDY    34  25  69 NW12      30.18R
WAUTOMA        CLOUDY    33  23  66 NW12      30.20R
$$

WIZ038-039-048-051-022100-
FOX VALLEY

CITY           SKY/WX    TMP DP  RH WIND       PRES   REMARKS
NWS GREEN BAY  CLOUDY    37  29  72 NW10      30.17R
APPLETON       CLOUDY    34  25  69 W10       30.15R
OSHKOSH        CLOUDY    34  25  69 W8        30.18R
FOND DU LAC    CLOUDY    34  23  64 NW9       30.19R
$$

WIZ022-050-052-022100-
EAST CENTRAL WISCONSIN

CITY           SKY/WX    TMP DP  RH WIND       PRES   REMARKS
EPHRAIM        CLOUDY    35  28  76 NW6       30.12R
WASHINGTON ISL CLOUDY    37  29  73 NW8G16    30.11R
STURGEON BAY   CLOUDY    36  27  69 NW9       30.15R
MANITOWOC      NOT AVBL
SHEBOYGAN      CLOUDY    34  25  69 W13       30.18R
$$

LMZ563-521-522-541>543-022100-
LAKESHORE

STATION/POSITION TIME  TEMP    WIND        PRES    VSBY  WAVE
                       AIR SEA DIR/SP/G                  HT/PER
                 (UTC) (F)     (DEG/KT/KT) (MB)    (MI)  (FT/S)
SHEBOYGAN LKSHOR 1900   34     300/ 14/ 16 1021.7R
KEWAUNEE LKSHORE 1930   35     290/  6/  9 1020.3R
SISTER BAY LKSHO 1853   36     330/ 15/ 17   N/A
MENOMINEE LKSHOR 1930   36     270/  8/ 12 1019.7R
$$




USA.gov is the U.S. government's official web portal to all federal, state and local government web resources and services.